owner,sensor,date,latitude,longitude,vertical_datum,direction_of_sea_water_velocity,sea_water_speed,upward_sea_water_velocity,qcFlag 
TABS,ioos:station:wmo:42048:1,1996-01-01T00:00:00Z,27.9396,-96.8429,2.0,302.362365,17.71078767,-99999.0,'11111222,11111222,99999999' 
TABS,ioos:station:wmo:42048:1,1996-01-01T00:30:00Z,27.9396,-96.8429,2.0,304.791617,18.47215472,-99999.0,'11111222,11111222,99999999' 
TABS,ioos:station:wmo:42048:1,1996-01-01T01:00:00Z,27.9396,-96.8429,2.0,318.1116848,16.41493223,-99999.0,'11111222,11111222,99999999' 
TABS,ioos:station:wmo:42048:1,1996-01-01T01:30:00Z,27.9396,-96.8429,2.0,332.8017193,16.5836938,-99999.0,'11111222,11111222,99999999' 
TABS,ioos:station:wmo:42048:1,1996-01-01T02:00:00Z,27.9396,-96.8429,2.0,336.2012136,15.66177832,-99999.0,'11111222,11111222,99999999' 
TABS,ioos:station:wmo:42048:1,1996-01-01T02:30:00Z,27.9396,-96.8429,2.0,340.4548099,13.86919248,-99999.0,'11111222,11111222,99999999' 
TABS,ioos:station:wmo:42048:1,1996-01-01T03:00:00Z,27.9396,-96.8429,2.0,347.9724371,13.14865773,-99999.0,'11111222,11111222,99999999' 
TABS,ioos:station:wmo:42048:1,1996-01-01T03:30:00Z,27.9396,-96.8429,2.0,354.6488914,15.86916507,-99999.0,'11111222,11111222,99999999' 
TABS,ioos:station:wmo:42048:1,1996-01-01T04:00:00Z,27.9396,-96.8429,2.0,351.3687094,14.0592354,-99999.0,'11111222,11111222,99999999' 
TABS,ioos:station:wmo:42048:1,1996-01-01T04:30:00Z,27.9396,-96.8429,2.0,7.895957089,13.83112432,-99999.0,'11111222,11111222,99999999' 
TABS,ioos:station:wmo:42048:1,1996-01-01T05:00:00Z,27.9396,-96.8429,2.0,16.93238956,10.1290967,-99999.0,'11111222,11111222,99999999' 
TABS,ioos:station:wmo:42048:1,1996-01-01T05:30:00Z,27.9396,-96.8429,2.0,10.02336867,10.91661578,-99999.0,'11111222,11111222,99999999' 
TABS,ioos:station:wmo:42048:1,1996-01-01T06:00:00Z,27.9396,-96.8429,2.0,27.95621115,8.105899086,-99999.0,'11133222,11111222,99999999' 
TABS,ioos:station:wmo:42048:1,1996-01-01T06:30:00Z,27.9396,-96.8429,2.0,30.94790361,6.144794545,-99999.0,'11133222,11111222,99999999' 
TABS,ioos:station:wmo:42048:1,1996-01-01T07:00:00Z,27.9396,-96.8429,2.0,38.23928873,5.105457864,-99999.0,'11133222,11111222,99999999' 
TABS,ioos:station:wmo:42048:1,1996-01-01T07:30:00Z,27.9396,-96.8429,2.0,14.67338565,4.145189984,-99999.0,'11133222,11111222,99999999' 
TABS,ioos:station:wmo:42048:1,1996-01-01T08:00:00Z,27.9396,-96.8429,2.0,75.96378935,1.731704363,-99999.0,'11133222,11111222,99999999' 
TABS,ioos:station:wmo:42048:1,1996-01-01T08:30:00Z,27.9396,-96.8429,2.0,0.000210459,1.26,-99999.0,'11133222,11111222,99999999' 
TABS,ioos:station:wmo:42048:1,1996-01-01T09:00:00Z,27.9396,-96.8429,2.0,45.00010523,0.593969696,-99999.0,'11133222,11111222,99999999' 
TABS,ioos:station:wmo:42048:1,1996-01-01T09:30:00Z,27.9396,-96.8429,2.0,45.00010523,0.890954544,-99999.0,'11133222,11111222,99999999' 
TABS,ioos:station:wmo:42048:1,1996-01-01T10:00:00Z,27.9396,-96.8429,2.0,0.0,0.0,-99999.0,'11133222,11111222,99999999' 
TABS,ioos:station:wmo:42048:1,1996-01-01T10:30:00Z,27.9396,-96.8429,2.0,239.035895,1.224499898,-99999.0,'11133222,11111222,99999999' 
TABS,ioos:station:wmo:42048:1,1996-01-01T11:00:00Z,27.9396,-96.8429,2.0,239.035895,1.224499898,-99999.0,'11133222,11111222,99999999' 
TABS,ioos:station:wmo:42048:1,1996-01-01T11:30:00Z,27.9396,-96.8429,2.0,224.9996843,2.687005769,-99999.0,'11133222,11111222,99999999' 
TABS,ioos:station:wmo:42048:1,1996-01-01T12:00:00Z,27.9396,-96.8429,2.0,262.8955055,3.39607126,-99999.0,'11133222,11111222,99999999' 
TABS,ioos:station:wmo:42048:1,1996-01-01T12:30:00Z,27.9396,-96.8429,2.0,232.2711129,2.40226976,-99999.0,'11133222,11111222,99999999' 
TABS,ioos:station:wmo:42048:1,1996-01-01T13:00:00Z,27.9396,-96.8429,2.0,224.9996843,7.155920626,-99999.0,'11133222,11111222,99999999' 
TABS,ioos:station:wmo:42048:1,1996-01-01T13:30:00Z,27.9396,-96.8429,2.0,252.8601621,5.734675231,-99999.0,'11133222,11111222,99999999' 
TABS,ioos:station:wmo:42048:1,1996-01-01T14:00:00Z,27.9396,-96.8429,2.0,241.9318634,7.162352965,-99999.0,'11133222,11111222,99999999' 
TABS,ioos:station:wmo:42048:1,1996-01-01T14:30:00Z,27.9396,-96.8429,2.0,245.5494706,7.634664367,-99999.0,'11133222,11111222,99999999' 
TABS,ioos:station:wmo:42048:1,1996-01-01T15:00:00Z,27.9396,-96.8429,2.0,243.43459,7.535549084,-99999.0,'11133222,11111222,99999999' 
TABS,ioos:station:wmo:42048:1,1996-01-01T15:30:00Z,27.9396,-96.8429,2.0,233.7143968,7.840408153,-99999.0,'11133222,11111222,99999999' 
TABS,ioos:station:wmo:42048:1,1996-01-01T16:00:00Z,27.9396,-96.8429,2.0,230.4858279,6.286692294,-99999.0,'11133222,11111222,99999999' 
TABS,ioos:station:wmo:42048:1,1996-01-01T16:30:00Z,27.9396,-96.8429,2.0,230.7573656,5.991135118,-99999.0,'11133222,11111222,99999999' 
TABS,ioos:station:wmo:42048:1,1996-01-01T17:00:00Z,27.9396,-96.8429,2.0,233.0935504,6.328001264,-99999.0,'11133222,11111222,99999999' 
TABS,ioos:station:wmo:42048:1,1996-01-01T17:30:00Z,27.9396,-96.8429,2.0,218.441567,7.800935841,-99999.0,'11133222,11111222,99999999' 
TABS,ioos:station:wmo:42048:1,1996-01-01T18:00:00Z,27.9396,-96.8429,2.0,228.2067,10.74363533,-99999.0,'11111222,11111222,99999999' 
TABS,ioos:station:wmo:42048:1,1996-01-01T18:30:00Z,27.9396,-96.8429,2.0,233.9796407,11.46126084,-99999.0,'11111222,11111222,99999999' 
TABS,ioos:station:wmo:42048:1,1996-01-01T19:00:00Z,27.9396,-96.8429,2.0,214.9871662,10.28955295,-99999.0,'11111222,11111222,99999999' 
TABS,ioos:station:wmo:42048:1,1996-01-01T19:30:00Z,27.9396,-96.8429,2.0,202.9588761,13.51023686,-99999.0,'11111222,11111222,99999999' 
TABS,ioos:station:wmo:42048:1,1996-01-01T20:00:00Z,27.9396,-96.8429,2.0,209.934981,16.05142361,-99999.0,'11111222,11111222,99999999' 
TABS,ioos:station:wmo:42048:1,1996-01-01T20:30:00Z,27.9396,-96.8429,2.0,196.1197719,16.67564991,-99999.0,'11111222,11111222,99999999' 
TABS,ioos:station:wmo:42048:1,1996-01-01T21:00:00Z,27.9396,-96.8429,2.0,200.3469128,15.73160513,-99999.0,'11111222,11111222,99999999' 
TABS,ioos:station:wmo:42048:1,1996-01-01T21:30:00Z,27.9396,-96.8429,2.0,200.548338,18.00561024,-99999.0,'11111222,11111222,99999999' 
TABS,ioos:station:wmo:42048:1,1996-01-01T22:00:00Z,27.9396,-96.8429,2.0,199.3666953,16.52508699,-99999.0,'11111222,11111222,99999999' 
TABS,ioos:station:wmo:42048:1,1996-01-01T22:30:00Z,27.9396,-96.8429,2.0,197.1073764,17.20108136,-99999.0,'11111222,11111222,99999999' 
TABS,ioos:station:wmo:42048:1,1996-01-01T23:00:00Z,27.9396,-96.8429,2.0,191.3031602,17.19350168,-99999.0,'11111222,11111222,99999999' 
TABS,ioos:station:wmo:42048:1,1996-01-01T23:30:00Z,27.9396,-96.8429,2.0,190.638229,20.58380188,-99999.0,'11111222,11111222,99999999' 
TABS,ioos:station:wmo:42048:1,1996-01-02T00:00:00Z,27.9396,-96.8429,2.0,190.3843786,19.91622956,-99999.0,'11111222,11111222,99999999' 
TABS,ioos:station:wmo:42048:1,1996-01-02T00:30:00Z,27.9396,-96.8429,2.0,182.8245863,21.30588886,-99999.0,'11111222,11111222,99999999' 
TABS,ioos:station:wmo:42048:1,1996-01-02T01:00:00Z,27.9396,-96.8429,2.0,186.7503132,19.73682852,-99999.0,'11111222,11111222,99999999' 
TABS,ioos:station:wmo:42048:1,1996-01-02T01:30:00Z,27.9396,-96.8429,2.0,183.9014688,21.75041149,-99999.0,'11111222,11111222,99999999' 
TABS,ioos:station:wmo:42048:1,1996-01-02T02:00:00Z,27.9396,-96.8429,2.0,185.0014046,21.79298282,-99999.0,'11111222,11111222,99999999' 
TABS,ioos:station:wmo:42048:1,1996-01-02T02:30:00Z,27.9396,-96.8429,2.0,192.1166231,18.10331461,-99999.0,'11111222,11111222,99999999' 
TABS,ioos:station:wmo:42048:1,1996-01-02T03:00:00Z,27.9396,-96.8429,2.0,190.1660343,20.33933381,-99999.0,'11111222,11111222,99999999' 
TABS,ioos:station:wmo:42048:1,1996-01-02T03:30:00Z,27.9396,-96.8429,2.0,183.5217494,17.09228188,-99999.0,'11111222,11111222,99999999' 
TABS,ioos:station:wmo:42048:1,1996-01-02T04:00:00Z,27.9396,-96.8429,2.0,182.9404741,20.46695141,-99999.0,'11111222,11111222,99999999' 
TABS,ioos:station:wmo:42048:1,1996-01-02T04:30:00Z,27.9396,-96.8429,2.0,187.961923,19.78069008,-99999.0,'11111222,11111222,99999999' 
TABS,ioos:station:wmo:42048:1,1996-01-02T05:00:00Z,27.9396,-96.8429,2.0,188.7537926,16.62365183,-99999.0,'11111222,11111222,99999999' 
TABS,ioos:station:wmo:42048:1,1996-01-02T05:30:00Z,27.9396,-96.8429,2.0,195.795994,11.60838059,-99999.0,'11111222,11111222,99999999' 
TABS,ioos:station:wmo:42048:1,1996-01-02T06:00:00Z,27.9396,-96.8429,2.0,181.6785951,14.3361536,-99999.0,'11111222,11111222,99999999' 
TABS,ioos:station:wmo:42048:1,1996-01-02T06:30:00Z,27.9396,-96.8429,2.0,183.5655307,13.50614675,-99999.0,'11111222,11111222,99999999' 
TABS,ioos:station:wmo:42048:1,1996-01-02T07:00:00Z,27.9396,-96.8429,2.0,185.5539548,13.12160432,-99999.0,'11111222,11111222,99999999' 
TABS,ioos:station:wmo:42048:1,1996-01-02T07:30:00Z,27.9396,-96.8429,2.0,190.1389116,8.350407176,-99999.0,'11133222,11111222,99999999' 
TABS,ioos:station:wmo:42048:1,1996-01-02T08:00:00Z,27.9396,-96.8429,2.0,203.7979007,9.912865378,-99999.0,'11133222,11111222,99999999' 
TABS,ioos:station:wmo:42048:1,1996-01-02T08:30:00Z,27.9396,-96.8429,2.0,186.6910383,7.209105354,-99999.0,'11133222,11111222,99999999' 
TABS,ioos:station:wmo:42048:1,1996-01-02T09:00:00Z,27.9396,-96.8429,2.0,159.7816073,8.535959231,-99999.0,'11133222,11111222,99999999' 
TABS,ioos:station:wmo:42048:1,1996-01-02T09:30:00Z,27.9396,-96.8429,2.0,158.6069492,5.208886637,-99999.0,'11133222,11111222,99999999' 
TABS,ioos:station:wmo:42048:1,1996-01-02T10:00:00Z,27.9396,-96.8429,2.0,84.82785127,2.329484922,-99999.0,'11133222,11111222,99999999' 
TABS,ioos:station:wmo:42048:1,1996-01-02T10:30:00Z,27.9396,-96.8429,2.0,128.2390783,5.105457864,-99999.0,'11133222,11111222,99999999' 
TABS,ioos:station:wmo:42048:1,1996-01-02T11:00:00Z,27.9396,-96.8429,2.0,26.56519952,0.939148551,-99999.0,'11133222,11111222,99999999' 
TABS,ioos:station:wmo:42048:1,1996-01-02T11:30:00Z,27.9396,-96.8429,2.0,30.4202641,8.314625668,-99999.0,'11133222,11111222,99999999' 
TABS,ioos:station:wmo:42048:1,1996-01-02T12:00:00Z,27.9396,-96.8429,2.0,37.82287616,4.810665235,-99999.0,'11133222,11111222,99999999' 
TABS,ioos:station:wmo:42048:1,1996-01-02T12:30:00Z,27.9396,-96.8429,2.0,72.99089942,10.80252285,-99999.0,'11111222,11111222,99999999' 
TABS,ioos:station:wmo:42048:1,1996-01-02T13:00:00Z,27.9396,-96.8429,2.0,56.88693185,11.56885906,-99999.0,'11111222,11111222,99999999' 
TABS,ioos:station:wmo:42048:1,1996-01-02T13:30:00Z,27.9396,-96.8429,2.0,42.11226835,11.92989941,-99999.0,'11111222,11111222,99999999' 
TABS,ioos:station:wmo:42048:1,1996-01-02T14:00:00Z,27.9396,-96.8429,2.0,47.45701812,14.02067402,-99999.0,'11111222,11111222,99999999' 
TABS,ioos:station:wmo:42048:1,1996-01-02T14:30:00Z,27.9396,-96.8429,2.0,35.72249678,12.98260375,-99999.0,'11111222,11111222,99999999' 
TABS,ioos:station:wmo:42048:1,1996-01-02T15:00:00Z,27.9396,-96.8429,2.0,45.00010523,18.48377126,-99999.0,'11111222,11111222,99999999' 
TABS,ioos:station:wmo:42048:1,1996-01-02T15:30:00Z,27.9396,-96.8429,2.0,30.73562629,19.37091893,-99999.0,'11111222,11111222,99999999' 
TABS,ioos:station:wmo:42048:1,1996-01-02T16:00:00Z,27.9396,-96.8429,2.0,37.23955433,19.84641277,-99999.0,'11111222,11111222,99999999' 
TABS,ioos:station:wmo:42048:1,1996-01-02T16:30:00Z,27.9396,-96.8429,2.0,32.46133281,21.98505174,-99999.0,'11111222,11111222,99999999' 
TABS,ioos:station:wmo:42048:1,1996-01-02T17:00:00Z,27.9396,-96.8429,2.0,34.79881856,26.94960668,-99999.0,'11111222,11111222,99999999' 
TABS,ioos:station:wmo:42048:1,1996-01-02T17:30:00Z,27.9396,-96.8429,2.0,39.97815967,27.22204438,-99999.0,'11111222,11111222,99999999' 
TABS,ioos:station:wmo:42048:1,1996-01-02T18:00:00Z,27.9396,-96.8429,2.0,37.2585237,30.97071197,-99999.0,'11111222,11111222,99999999' 
TABS,ioos:station:wmo:42048:1,1996-01-02T18:30:00Z,27.9396,-96.8429,2.0,39.352164,30.24838012,-99999.0,'11111222,11111222,99999999' 
TABS,ioos:station:wmo:42048:1,1996-01-02T19:00:00Z,27.9396,-96.8429,2.0,32.88629061,32.61680855,-99999.0,'11111222,11111222,99999999' 
TABS,ioos:station:wmo:42048:1,1996-01-02T19:30:00Z,27.9396,-96.8429,2.0,33.50863222,35.88373587,-99999.0,'11111222,11111222,99999999' 
TABS,ioos:station:wmo:42048:1,1996-01-02T20:00:00Z,27.9396,-96.8429,2.0,36.48977313,38.27284285,-99999.0,'11111222,11111222,99999999' 
TABS,ioos:station:wmo:42048:1,1996-01-02T20:30:00Z,27.9396,-96.8429,2.0,33.67857894,41.02562736,-99999.0,'11111222,11111222,99999999' 
TABS,ioos:station:wmo:42048:1,1996-01-02T21:00:00Z,27.9396,-96.8429,2.0,43.28297703,39.64406639,-99999.0,'11111222,11111222,99999999' 
TABS,ioos:station:wmo:42048:1,1996-01-02T21:30:00Z,27.9396,-96.8429,2.0,44.02908557,35.46649828,-99999.0,'11111222,11111222,99999999' 
TABS,ioos:station:wmo:42048:1,1996-01-02T22:00:00Z,27.9396,-96.8429,2.0,36.70355742,43.36818304,-99999.0,'11111222,11111222,99999999' 
TABS,ioos:station:wmo:42048:1,1996-01-02T22:30:00Z,27.9396,-96.8429,2.0,37.59815974,46.26973633,-99999.0,'11111222,11111222,99999999' 
TABS,ioos:station:wmo:42048:1,1996-01-02T23:00:00Z,27.9396,-96.8429,2.0,39.73795553,45.48897449,-99999.0,'11111222,11111222,99999999' 
TABS,ioos:station:wmo:42048:1,1996-01-02T23:30:00Z,27.9396,-96.8429,2.0,43.45691396,44.11117772,-99999.0,'11111222,11111222,99999999' 
TABS,ioos:station:wmo:42048:1,1996-01-03T00:00:00Z,27.9396,-96.8429,2.0,44.60353656,42.90826727,-99999.0,'11111222,11111222,99999999' 
TABS,ioos:station:wmo:42048:1,1996-01-03T00:30:00Z,27.9396,-96.8429,2.0,47.73519671,43.86230272,-99999.0,'11111222,11111222,99999999' 
TABS,ioos:station:wmo:42048:1,1996-01-03T01:00:00Z,27.9396,-96.8429,2.0,47.73519671,43.86230272,-99999.0,'11111222,11111222,99999999' 
TABS,ioos:station:wmo:42048:1,1996-01-03T01:30:00Z,27.9396,-96.8429,2.0,49.56148599,41.25600078,-99999.0,'11111222,11111222,99999999' 
TABS,ioos:station:wmo:42048:1,1996-01-03T02:00:00Z,27.9396,-96.8429,2.0,51.48039112,39.59641398,-99999.0,'11111222,11111222,99999999' 
TABS,ioos:station:wmo:42048:1,1996-01-03T02:30:00Z,27.9396,-96.8429,2.0,53.25294285,37.3400857,-99999.0,'11111222,11111222,99999999' 
TABS,ioos:station:wmo:42048:1,1996-01-03T03:00:00Z,27.9396,-96.8429,2.0,51.27704753,35.37650209,-99999.0,'11111222,11111222,99999999' 
TABS,ioos:station:wmo:42048:1,1996-01-03T03:30:00Z,27.9396,-96.8429,2.0,53.27328917,35.23410989,-99999.0,'11111222,11111222,99999999' 
TABS,ioos:station:wmo:42048:1,1996-01-03T04:00:00Z,27.9396,-96.8429,2.0,47.47134344,34.6026314,-99999.0,'11111222,11111222,99999999' 
TABS,ioos:station:wmo:42048:1,1996-01-03T04:30:00Z,27.9396,-96.8429,2.0,51.85378404,32.41204252,-99999.0,'11111222,11111222,99999999' 
TABS,ioos:station:wmo:42048:1,1996-01-03T05:00:00Z,27.9396,-96.8429,2.0,56.20637583,32.20039907,-99999.0,'11111222,11111222,99999999' 
TABS,ioos:station:wmo:42048:1,1996-01-03T05:30:00Z,27.9396,-96.8429,2.0,51.1315967,27.87095441,-99999.0,'11111222,11111222,99999999' 
TABS,ioos:station:wmo:42048:1,1996-01-03T06:00:00Z,27.9396,-96.8429,2.0,55.65643022,25.77304794,-99999.0,'11111222,11111222,99999999' 
TABS,ioos:station:wmo:42048:1,1996-01-03T06:30:00Z,27.9396,-96.8429,2.0,53.79975344,25.32972957,-99999.0,'11111222,11111222,99999999' 
TABS,ioos:station:wmo:42048:1,1996-01-03T07:00:00Z,27.9396,-96.8429,2.0,50.31135867,25.7431486,-99999.0,'11111222,11111222,99999999' 
TABS,ioos:station:wmo:42048:1,1996-01-03T07:30:00Z,27.9396,-96.8429,2.0,54.25623777,27.78336553,-99999.0,'11111222,11111222,99999999' 
TABS,ioos:station:wmo:42048:1,1996-01-03T08:00:00Z,27.9396,-96.8429,2.0,46.29823813,26.53038447,-99999.0,'11111222,11111222,99999999' 
TABS,ioos:station:wmo:42048:1,1996-01-03T08:30:00Z,27.9396,-96.8429,2.0,49.08916407,25.0883738,-99999.0,'11111222,11111222,99999999' 
TABS,ioos:station:wmo:42048:1,1996-01-03T09:00:00Z,27.9396,-96.8429,2.0,51.49513487,23.69164621,-99999.0,'11111222,11111222,99999999' 
TABS,ioos:station:wmo:42048:1,1996-01-03T09:30:00Z,27.9396,-96.8429,2.0,47.25214431,22.67321327,-99999.0,'11111222,11111222,99999999' 
TABS,ioos:station:wmo:42048:1,1996-01-03T10:00:00Z,27.9396,-96.8429,2.0,55.76618653,23.9613543,-99999.0,'11111222,11111222,99999999' 
TABS,ioos:station:wmo:42048:1,1996-01-03T10:30:00Z,27.9396,-96.8429,2.0,41.64490453,25.37205549,-99999.0,'11111222,11111222,99999999' 
TABS,ioos:station:wmo:42048:1,1996-01-03T11:00:00Z,27.9396,-96.8429,2.0,46.29823813,26.53038447,-99999.0,'11111222,11111222,99999999' 
TABS,ioos:station:wmo:42048:1,1996-01-03T11:30:00Z,27.9396,-96.8429,2.0,51.54225631,28.79705888,-99999.0,'11111222,11111222,99999999' 
TABS,ioos:station:wmo:42048:1,1996-01-03T12:00:00Z,27.9396,-96.8429,2.0,47.48067604,27.44732045,-99999.0,'11111222,11111222,99999999' 
TABS,ioos:station:wmo:42048:1,1996-01-03T12:30:00Z,27.9396,-96.8429,2.0,53.2969192,26.80411349,-99999.0,'11111222,11111222,99999999' 
TABS,ioos:station:wmo:42048:1,1996-01-03T13:00:00Z,27.9396,-96.8429,2.0,42.51953442,27.44732045,-99999.0,'11111222,11111222,99999999' 
TABS,ioos:station:wmo:42048:1,1996-01-03T13:30:00Z,27.9396,-96.8429,2.0,49.65253305,25.71735795,-99999.0,'11111222,11111222,99999999' 
TABS,ioos:station:wmo:42048:1,1996-01-03T14:00:00Z,27.9396,-96.8429,2.0,40.40073408,26.01337541,-99999.0,'11111222,11111222,99999999' 
TABS,ioos:station:wmo:42048:1,1996-01-03T14:30:00Z,27.9396,-96.8429,2.0,42.44894147,26.84716931,-99999.0,'11111222,11111222,99999999' 
TABS,ioos:station:wmo:42048:1,1996-01-03T15:00:00Z,27.9396,-96.8429,2.0,40.6953337,27.78991364,-99999.0,'11111222,11111222,99999999' 
TABS,ioos:station:wmo:42048:1,1996-01-03T15:30:00Z,27.9396,-96.8429,2.0,37.56618815,27.6540413,-99999.0,'11111222,11111222,99999999' 
TABS,ioos:station:wmo:42048:1,1996-01-03T16:00:00Z,27.9396,-96.8429,2.0,51.47561625,29.09212952,-99999.0,'11111222,11111222,99999999' 
TABS,ioos:station:wmo:42048:1,1996-01-03T16:30:00Z,27.9396,-96.8429,2.0,46.50251918,33.9810918,-99999.0,'11111222,11111222,99999999' 
TABS,ioos:station:wmo:42048:1,1996-01-03T17:00:00Z,27.9396,-96.8429,2.0,44.43801677,30.99398167,-99999.0,'11111222,11111222,99999999' 
TABS,ioos:station:wmo:42048:1,1996-01-03T17:30:00Z,27.9396,-96.8429,2.0,46.69586258,30.10765019,-99999.0,'11111222,11111222,99999999' 
TABS,ioos:station:wmo:42048:1,1996-01-03T18:00:00Z,27.9396,-96.8429,2.0,43.89964625,31.29524724,-99999.0,'11111222,11111222,99999999' 
TABS,ioos:station:wmo:42048:1,1996-01-03T18:30:00Z,27.9396,-96.8429,2.0,49.52640273,30.19570996,-99999.0,'11111222,11111222,99999999' 
TABS,ioos:station:wmo:42048:1,1996-01-03T19:00:00Z,27.9396,-96.8429,2.0,40.89186802,33.16366988,-99999.0,'11111222,11111222,99999999' 
TABS,ioos:station:wmo:42048:1,1996-01-03T19:30:00Z,27.9396,-96.8429,2.0,39.27494269,35.93765296,-99999.0,'11111222,11111222,99999999' 
TABS,ioos:station:wmo:42048:1,1996-01-03T20:00:00Z,27.9396,-96.8429,2.0,45.00010523,34.56337946,-99999.0,'11111222,11111222,99999999' 
TABS,ioos:station:wmo:42048:1,1996-01-03T20:30:00Z,27.9396,-96.8429,2.0,43.58485365,36.07345007,-99999.0,'11111222,11111222,99999999' 
TABS,ioos:station:wmo:42048:1,1996-01-03T21:00:00Z,27.9396,-96.8429,2.0,41.39779178,37.92636154,-99999.0,'11111222,11111222,99999999' 
TABS,ioos:station:wmo:42048:1,1996-01-03T21:30:00Z,27.9396,-96.8429,2.0,50.30657787,41.89886872,-99999.0,'11111222,11111222,99999999' 
TABS,ioos:station:wmo:42048:1,1996-01-03T22:00:00Z,27.9396,-96.8429,2.0,47.09827456,40.55855274,-99999.0,'11111222,11111222,99999999' 
TABS,ioos:station:wmo:42048:1,1996-01-03T22:30:00Z,27.9396,-96.8429,2.0,46.92474828,44.42429628,-99999.0,'11111222,11111222,99999999' 
TABS,ioos:station:wmo:42048:1,1996-01-03T23:00:00Z,27.9396,-96.8429,2.0,50.58697907,36.82427053,-99999.0,'11111222,11111222,99999999' 
TABS,ioos:station:wmo:42048:1,1996-01-03T23:30:00Z,27.9396,-96.8429,2.0,49.58993353,33.48991042,-99999.0,'11111222,11111222,99999999' 
TABS,ioos:station:wmo:42048:1,1996-01-04T00:00:00Z,27.9396,-96.8429,2.0,42.27010952,31.32502674,-99999.0,'11111222,11111222,99999999' 
TABS,ioos:station:wmo:42048:1,1996-01-04T00:30:00Z,27.9396,-96.8429,2.0,36.72819271,33.12610149,-99999.0,'11111222,11111222,99999999' 
TABS,ioos:station:wmo:42048:1,1996-01-04T01:00:00Z,27.9396,-96.8429,2.0,37.47171903,36.37600583,-99999.0,'11111222,11111222,99999999' 
TABS,ioos:station:wmo:42048:1,1996-01-04T01:30:00Z,27.9396,-96.8429,2.0,38.91687968,36.56533057,-99999.0,'11111222,11111222,99999999' 
TABS,ioos:station:wmo:42048:1,1996-01-04T02:00:00Z,27.9396,-96.8429,2.0,42.15956393,36.09972992,-99999.0,'11111222,11111222,99999999' 
TABS,ioos:station:wmo:42048:1,1996-01-04T02:30:00Z,27.9396,-96.8429,2.0,41.13403303,35.2375368,-99999.0,'11111222,11111222,99999999' 
TABS,ioos:station:wmo:42048:1,1996-01-04T03:00:00Z,27.9396,-96.8429,2.0,38.13316394,39.91970065,-99999.0,'11111222,11111222,99999999' 
TABS,ioos:station:wmo:42048:1,1996-01-04T03:30:00Z,27.9396,-96.8429,2.0,36.98567363,40.62408276,-99999.0,'11111222,11111222,99999999' 
TABS,ioos:station:wmo:42048:1,1996-01-04T04:00:00Z,27.9396,-96.8429,2.0,35.43957729,55.60132732,-99999.0,'11111222,11111222,99999999' 
TABS,ioos:station:wmo:42048:1,1996-01-04T04:30:00Z,27.9396,-96.8429,2.0,34.73978105,60.26164618,-99999.0,'11111222,11111222,99999999' 
TABS,ioos:station:wmo:42048:1,1996-01-04T05:00:00Z,27.9396,-96.8429,2.0,37.40547962,63.13275695,-99999.0,'11111222,11111222,99999999' 
TABS,ioos:station:wmo:42048:1,1996-01-04T05:30:00Z,27.9396,-96.8429,2.0,42.50231393,68.30777481,-99999.0,'11111222,11111222,99999999' 
TABS,ioos:station:wmo:42048:1,1996-01-04T06:00:00Z,27.9396,-96.8429,2.0,42.30637283,69.81201186,-99999.0,'11111222,11111222,99999999' 
TABS,ioos:station:wmo:42048:1,1996-01-04T06:30:00Z,27.9396,-96.8429,2.0,45.21886936,77.7823129,-99999.0,'11111222,11111222,99999999' 
TABS,ioos:station:wmo:42048:1,1996-01-04T07:00:00Z,27.9396,-96.8429,2.0,43.36479412,73.34270243,-99999.0,'11111222,11111222,99999999' 
TABS,ioos:station:wmo:42048:1,1996-01-04T07:30:00Z,27.9396,-96.8429,2.0,46.74332196,68.57159543,-99999.0,'11111222,11111222,99999999' 
TABS,ioos:station:wmo:42048:1,1996-01-04T08:00:00Z,27.9396,-96.8429,2.0,46.12403481,75.7032747,-99999.0,'11111222,11111222,99999999' 
TABS,ioos:station:wmo:42048:1,1996-01-04T08:30:00Z,27.9396,-96.8429,2.0,47.20048918,77.5348599,-99999.0,'11111222,11111222,99999999' 
TABS,ioos:station:wmo:42048:1,1996-01-04T09:00:00Z,27.9396,-96.8429,2.0,48.38068135,70.7489378,-99999.0,'11111222,11111222,99999999' 
TABS,ioos:station:wmo:42048:1,1996-01-04T09:30:00Z,27.9396,-96.8429,2.0,50.19857373,72.42278095,-99999.0,'11111222,11111222,99999999' 
TABS,ioos:station:wmo:42048:1,1996-01-04T10:00:00Z,27.9396,-96.8429,2.0,49.08936644,71.09674043,-99999.0,'11111222,11111222,99999999' 
TABS,ioos:station:wmo:42048:1,1996-01-04T10:30:00Z,27.9396,-96.8429,2.0,48.89947152,65.71506981,-99999.0,'11111222,11111222,99999999' 
TABS,ioos:station:wmo:42048:1,1996-01-04T11:00:00Z,27.9396,-96.8429,2.0,49.26260759,76.20354651,-99999.0,'11111222,11111222,99999999' 
TABS,ioos:station:wmo:42048:1,1996-01-04T11:30:00Z,27.9396,-96.8429,2.0,49.97981442,72.09295181,-99999.0,'11111222,11111222,99999999' 
TABS,ioos:station:wmo:42048:1,1996-01-04T12:00:00Z,27.9396,-96.8429,2.0,48.88194182,66.01137023,-99999.0,'11111222,11111222,99999999' 
TABS,ioos:station:wmo:42048:1,1996-01-04T12:30:00Z,27.9396,-96.8429,2.0,47.69183557,63.54001102,-99999.0,'11111222,11111222,99999999' 
TABS,ioos:station:wmo:42048:1,1996-01-04T13:00:00Z,27.9396,-96.8429,2.0,46.60693501,63.7990478,-99999.0,'11111222,11111222,99999999' 
TABS,ioos:station:wmo:42048:1,1996-01-04T13:30:00Z,27.9396,-96.8429,2.0,42.4846281,54.29447946,-99999.0,'11111222,11111222,99999999' 
TABS,ioos:station:wmo:42048:1,1996-01-04T14:00:00Z,27.9396,-96.8429,2.0,46.96224419,61.12986831,-99999.0,'11111222,11111222,99999999' 
TABS,ioos:station:wmo:42048:1,1996-01-04T14:30:00Z,27.9396,-96.8429,2.0,49.06556373,63.03454926,-99999.0,'11111222,11111222,99999999' 
TABS,ioos:station:wmo:42048:1,1996-01-04T15:00:00Z,27.9396,-96.8429,2.0,47.33613384,58.46267613,-99999.0,'11111222,11111222,99999999' 
TABS,ioos:station:wmo:42048:1,1996-01-04T15:30:00Z,27.9396,-96.8429,2.0,45.00010523,52.15619618,-99999.0,'11111222,11111222,99999999' 
TABS,ioos:station:wmo:42048:1,1996-01-04T16:00:00Z,27.9396,-96.8429,2.0,44.06408227,54.53935276,-99999.0,'11111222,11111222,99999999' 